Regional Weather Roundup
Issued by NWS

Home | Current Version | Previous Version | Graphics & Text | Print | Product List | Glossary On
Versions: 1 2 3 4 5 6 7 8 9 10 11 12 13 14 15 16 17 18 19 20 21 22 23 24 25 26 27 28 29 30 31 32 33 34 35 36 37 38 39 40 41 42 43 44 45 46 47 48 49 50
000
ASUS43 KBIS 291610
RWRND

NORTH DAKOTA REGIONAL WEATHER ROUNDUP
NATIONAL WEATHER SERVICE BISMARCK ND
1000 AM CST THU JAN 29 2015

NOTE: "FAIR" INDICATES FEW OR NO CLOUDS BELOW 12,000 FEET WITH NO
SIGNIFICANT WEATHER AND/OR OBSTRUCTIONS TO VISIBILITY.


NDZ001>003-009>011-017-291700-
NORTHWEST NORTH DAKOTA

CITY           SKY/WX    TMP DP  RH WIND       PRES   REMARKS
WILLISTON      CLOUDY    22  17  81 NW9       30.49S WCI  12
MINOT          LGT SNOW  18  12  77 NW18      30.48R WCI   2
MINOT AFB      LGT SNOW  17  16  96 N16       30.49R FOG     WCI   1
$$

NDZ018>021-031>035-040>046-291700-
SOUTHWEST NORTH DAKOTA

CITY           SKY/WX    TMP DP  RH WIND       PRES   REMARKS
BISMARCK       CLOUDY    27  19  72 N14G24    30.47R WCI  16
DICKINSON      SUNNY     28  22  78 W16       30.42R WCI  16
GARRISON         N/A     25  19  78 N16       30.45R WCI  12
HETTINGER ARPT CLOUDY    27  21  78 NW10      30.46R WCI  17
$$

NDZ004>008-012>016-024-026-027-054-291700-
NORTHEAST NORTH DAKOTA

CITY           SKY/WX    TMP DP  RH WIND       PRES   REMARKS
GRAND FORKS    CLOUDY    13   5  70 N23       30.47R WCI  -6
GRND FRKS AFB  CLOUDY    12   5  73 N18G24    30.48R WCI  -5
DEVILS LAKE    CLOUDY    14  10  85 N14       30.45R WCI  -1
$$

NDZ022-023-025-028>030-036>039-047>053-291700-
SOUTHEAST NORTH DAKOTA

CITY           SKY/WX    TMP DP  RH WIND       PRES   REMARKS
FARGO          FLURRIES  19  10  68 N26G36    30.43R WCI   1
JAMESTOWN      LGT SNOW  20  14  77 NW22G30   30.43R WCI   3
$$




USA.gov is the U.S. government's official web portal to all federal, state and local government web resources and services.